Flag for Canada Weather past 2 weeks in Saint John, New Brunswick, Canada

Now
25 °F

Clear.


Feels Like: 25 °F
Forecast: 23 / 31 °F
Wind: 2 mph from North

Location: Saint John

Current Time: Dec 19, 2014 at 9:41:14 PM

Latest Report: Dec 19, 2014 at 9:00 PM


Visibility: 15 mi

Pressure: 30.00 "Hg

Humidity: 93%

Dew point: 23 °F

Location of Saint JohnLocation

Historic Weather in Saint John — Graph

°F

Saint John temperature yesterday

Maximum temperature yesterday: 34 °F (at 12:00 AM)
Minimum temperature yesterday: 30 °F (at 3:00 PM)
Average temperature yesterday: 32 °F

Past Weeks' High & Low Weather Summary

 TemperatureHumidityPressure
High50 °F (Dec 10, 8:50 PM)100% (Dec 6, 7:00 AM)30.84 "Hg (Dec 6, 7:00 AM)
Low1 °F (Dec 8, 5:00 AM)27% (Dec 5, 3:00 PM)29.39 "Hg (Dec 18, 7:00 AM)
Average31 °F86%30.05 "Hg
* Reported Dec 4 8:00 PM — Dec 19 8:00 PM, Saint John, Weather by CustomWeather, © 2014

Note: Actual official high and low records may vary slightly from our data, if they occured in-between our weather recording intervals... More about our weather records

Advertising

Saint John weather history for previous 24 hours

 ConditionsComfort  
Time TempWeatherWind HumidityBarometerVisibility
8:00 PM
Dec 19
27 °FPassing clouds.9 mph93%29.97 "Hg15 mi
7:00 PM27 °FPartly cloudy.8 mph93%29.94 "Hg15 mi
6:00 PM28 °FOvercast.10 mph86%29.90 "Hg15 mi
5:00 PM28 °FOvercast.13 mph86%29.87 "Hg15 mi
4:00 PM28 °FOvercast.10 mph86%29.85 "Hg15 mi
3:00 PM30 °FSnow flurries. Overcast.15 mph80%29.81 "Hg15 mi
2:00 PM28 °FSnow flurries. Mostly cloudy.14 mph86%29.80 "Hg6 mi
1:00 PM28 °FOvercast.10 mph86%29.79 "Hg8 mi
12:00 PM28 °FMostly cloudy.14 mph86%29.79 "Hg15 mi
11:00 AM28 °FPartly sunny.12 mph86%29.78 "Hg15 mi
10:00 AM27 °FBroken clouds.13 mph86%29.77 "Hg15 mi
9:00 AM27 °FPartly sunny.12 mph86%29.76 "Hg15 mi
8:00 AM27 °FMore clouds than sun.14 mph86%29.72 "Hg15 mi
7:48 AM27 °FMostly cloudy.12 mph86%29.72 "Hg15 mi
7:00 AM27 °FMostly cloudy.17 mph86%29.68 "Hg15 mi
6:00 AM27 °FMostly cloudy.21 mph86%29.66 "Hg20 mi
5:00 AM27 °FMostly cloudy.18 mph93%29.65 "Hg15 mi
4:00 AM28 °FMostly cloudy.15 mph86%29.65 "Hg15 mi
3:00 AM28 °FOvercast.13 mph86%29.62 "Hg15 mi
2:00 AM28 °FLight snow. Mostly cloudy.18 mph86%29.58 "Hg4 mi
1:00 AM28 °FLight snow. Mostly cloudy.15 mph93%29.56 "Hg3 mi
12:00 AM28 °FLight snow. Mostly cloudy.18 mph93%29.54 "Hg4 mi
11:00 PM
Dec 18
30 °FMostly cloudy.16 mph86%29.53 "Hg3 mi
10:00 PM30 °FLight snow. Mostly cloudy.16 mph93%29.51 "Hg2 mi
9:00 PM30 °FLight snow. Mostly cloudy.17 mph93%29.49 "Hg3 mi
Weather by CustomWeather, © 2014

See weather overviewHow to use our weather pages